| time (UTC) | temp F | wind direction | speed knots | gust knots | rain 1hr in | rain 24hr in | rain mn in | humidity % | barometer mb |
| 20260502220811 | 63 | 281 | 1.7 | 2.6 | 0.00 | 0.00 | 0.00 | 77 | 1018.2 |
| 20260502220304 | 64 | 280 | 0.9 | 2.6 | 0.00 | 0.00 | 0.00 | 77 | 1018.2 |
| 20260502215804 | 64 | 284 | 0.0 | 0.9 | 0.00 | 0.00 | 0.00 | 77 | 1018.4 |
| 20260502215305 | 64 | 284 | 0.9 | 1.7 | 0.00 | 0.00 | 0.00 | 77 | 1018.4 |
| 20260502214804 | 64 | 286 | 0.0 | 0.9 | 0.00 | 0.00 | 0.00 | 78 | 1018.4 |
| 20260502214304 | 63 | 286 | 0.0 | 2.6 | 0.00 | 0.00 | 0.00 | 78 | 1018.4 |
| 20260502213804 | 63 | 277 | 0.0 | 1.7 | 0.00 | 0.00 | 0.00 | 78 | 1018.3 |
| 20260502213304 | 64 | 333 | 0.0 | 0.9 | 0.00 | 0.00 | 0.00 | 78 | 1018.4 |
| 20260502212804 | 64 | 313 | 0.0 | 1.7 | 0.00 | 0.00 | 0.00 | 77 | 1018.5 |
| 20260502212305 | 64 | 283 | 0.0 | 0.0 | 0.00 | 0.00 | 0.00 | 77 | 1018.6 |
| 20260502211804 | 64 | 283 | 0.0 | 0.9 | 0.00 | 0.00 | 0.00 | 77 | 1018.6 |
| 20260502211304 | 64 | 284 | 0.9 | 2.6 | 0.00 | 0.00 | 0.00 | 77 | 1018.6 |
| 20260502210804 | 64 | 280 | 0.0 | 0.9 | 0.00 | 0.00 | 0.00 | 77 | 1018.6 |
| 20260502210304 | 63 | 280 | 0.0 | 1.7 | 0.00 | 0.00 | 0.00 | 77 | 1018.5 |
| 20260502205804 | 64 | 280 | 0.0 | 2.6 | 0.00 | 0.00 | 0.00 | 77 | 1018.5 |
| 20260502205305 | 64 | 290 | 0.0 | 0.9 | 0.00 | 0.00 | 0.00 | 77 | 1018.6 |
| 20260502204804 | 64 | 286 | 0.0 | 1.7 | 0.00 | 0.00 | 0.00 | 77 | 1018.6 |
| 20260502204304 | 64 | 302 | 0.0 | 0.9 | 0.00 | 0.00 | 0.00 | 77 | 1018.6 |
| 20260502203804 | 64 | 251 | 0.0 | 0.9 | 0.00 | 0.00 | 0.00 | 77 | 1018.6 |
| 20260502203304 | 64 | 322 | 0.0 | 0.9 | 0.00 | 0.00 | 0.00 | 77 | 1018.7 |
| 20260502202804 | 64 | 323 | 0.0 | 1.7 | 0.00 | 0.00 | 0.00 | 77 | 1018.7 |
| 20260502202305 | 64 | 323 | 0.0 | 1.7 | 0.00 | 0.00 | 0.00 | 77 | 1018.5 |
| 20260502201804 | 64 | 269 | 0.0 | 2.6 | 0.00 | 0.00 | 0.00 | 76 | 1018.4 |
| 20260502201304 | 64 | 332 | 0.0 | 0.9 | 0.00 | 0.00 | 0.00 | 77 | 1018.6 |
| 20260502200804 | 64 | 296 | 0.0 | 0.9 | 0.00 | 0.00 | 0.00 | 77 | 1018.6 |
| 20260502200304 | 64 | 276 | 0.0 | 2.6 | 0.00 | 0.00 | 0.00 | 76 | 1018.4 |
| 20260502195804 | 64 | 285 | 0.0 | 0.9 | 0.00 | 0.00 | 0.00 | 76 | 1018.3 |
| 20260502193804 | 64 | 272 | 0.0 | 0.9 | 0.00 | 0.00 | 0.00 | 75 | 1018.2 |
| 20260502193304 | 64 | 306 | 0.0 | 1.7 | 0.00 | 0.00 | 0.00 | 75 | 1018.2 |
| 20260502192804 | 64 | 288 | 0.9 | 1.7 | 0.00 | 0.00 | 0.00 | 75 | 1018.1 |
| 20260502192305 | 64 | 306 | 0.0 | 2.6 | 0.00 | 0.00 | 0.00 | 75 | 1018.1 |
| 20260502191304 | 64 | 329 | 0.0 | 0.9 | 0.00 | 0.00 | 0.00 | 75 | 1018.2 |
| 20260502190804 | 64 | 326 | 0.9 | 2.6 | 0.00 | 0.00 | 0.00 | 74 | 1018.2 |
| 20260502190305 | 64 | 272 | 0.0 | 1.7 | 0.00 | 0.00 | 0.00 | 74 | 1018.1 |
| 20260502185305 | 64 | 328 | 0.0 | 1.7 | 0.00 | 0.00 | 0.00 | 73 | 1018.2 |
| 20260502184804 | 65 | 330 | 0.0 | 2.6 | 0.00 | 0.00 | 0.00 | 72 | 1018.2 |
| 20260502183805 | 65 | 319 | 0.0 | 2.6 | 0.00 | 0.00 | 0.00 | 72 | 1018.1 |
| 20260502183305 | 65 | 326 | 0.0 | 1.7 | 0.00 | 0.00 | 0.00 | 71 | 1018.2 |
| 20260502182804 | 65 | 294 | 0.0 | 1.7 | 0.00 | 0.00 | 0.00 | 71 | 1018.1 |
| 20260502182305 | 65 | 320 | 0.9 | 2.6 | 0.00 | 0.00 | 0.00 | 70 | 1018.2 |
| 20260502181804 | 65 | 328 | 0.0 | 2.6 | 0.00 | 0.00 | 0.00 | 69 | 1018.3 |
| 20260502181304 | 65 | 324 | 0.0 | 1.7 | 0.00 | 0.00 | 0.00 | 69 | 1018.2 |
| 20260502180804 | 65 | 324 | 0.9 | 2.6 | 0.00 | 0.00 | 0.00 | 68 | 1018.1 |
| 20260502180304 | 66 | 276 | 0.0 | 1.7 | 0.00 | 0.00 | 0.00 | 67 | 1018.1 |
| 20260502170304 | 67 | 327 | 1.7 | 2.6 | 0.00 | 0.00 | 0.00 | 64 | 1018.4 |
| 20260502163304 | 68 | 323 | 1.7 | 4.3 | 0.00 | 0.00 | 0.00 | 58 | 1018.9 |
| 20260502162804 | 69 | 327 | 0.9 | 2.6 | 0.00 | 0.00 | 0.00 | 57 | 1018.8 |
| 20260502162305 | 69 | 319 | 1.7 | 5.2 | 0.00 | 0.00 | 0.00 | 56 | 1018.7 |
| 20260502161805 | 69 | 324 | 2.6 | 4.3 | 0.00 | 0.00 | 0.00 | 55 | 1018.7 |
| 20260502161305 | 69 | 319 | 1.7 | 6.1 | 0.00 | 0.00 | 0.00 | 55 | 1018.6 |
| 20260502160804 | 69 | 313 | 0.9 | 5.2 | 0.00 | 0.00 | 0.00 | 54 | 1018.6 |
| 20260502160304 | 69 | 290 | 0.9 | 2.6 | 0.00 | 0.00 | 0.00 | 56 | 1018.7 |
| 20260502152305 | 69 | 323 | 1.7 | 6.1 | 0.00 | 0.00 | 0.00 | 59 | 1019.2 |
| 20260502151805 | 70 | 323 | 1.7 | 4.3 | 0.00 | 0.00 | 0.00 | 57 | 1019.1 |
| 20260502151304 | 70 | 319 | 1.7 | 2.6 | 0.00 | 0.00 | 0.00 | 56 | 1019.3 |
| 20260502150804 | 70 | 325 | 0.9 | 2.6 | 0.00 | 0.00 | 0.00 | 54 | 1019.3 |
| 20260502130304 | 72 | 322 | 1.7 | 5.2 | 0.00 | 0.00 | 0.00 | 53 | 1020.5 |
| 20260502123305 | 72 | 320 | 1.7 | 2.6 | 0.00 | 0.00 | 0.00 | 51 | 1020.5 |
| 20260502122804 | 72 | 321 | 1.7 | 2.6 | 0.00 | 0.00 | 0.00 | 51 | 1020.6 |
| 20260502122306 | 72 | 314 | 0.9 | 4.3 | 0.00 | 0.00 | 0.00 | 51 | 1020.7 |
| 20260502121804 | 72 | 324 | 0.9 | 1.7 | 0.00 | 0.00 | 0.00 | 50 | 1020.7 |
| 20260502120805 | 71 | 298 | 0.0 | 0.9 | 0.00 | 0.00 | 0.00 | 51 | 1020.8 |
| 20260502120304 | 71 | 319 | 0.0 | 0.0 | 0.00 | 0.00 | 0.00 | 52 | 1020.9 |
| 20260502115804 | 71 | 320 | 0.0 | 4.3 | 0.00 | 0.00 | 0.00 | 52 | 1020.9 |
| 20260502115306 | 71 | 313 | 1.7 | 5.2 | 0.00 | 0.00 | 0.00 | 51 | 1020.9 |
| 20260502114804 | 71 | 283 | 0.9 | 4.3 | 0.00 | 0.00 | 0.00 | 50 | 1020.9 |
| 20260502114305 | 71 | 302 | 0.9 | 2.6 | 0.00 | 0.00 | 0.00 | 51 | 1021.0 |
| 20260502113305 | 70 | 312 | 0.0 | 1.7 | 0.00 | 0.00 | 0.00 | 53 | 1021.1 |
| 20260502112804 | 70 | 295 | 0.0 | 2.6 | 0.00 | 0.00 | 0.00 | 55 | 1021.1 |
| 20260502112306 | 70 | 276 | 0.0 | 0.9 | 0.00 | 0.00 | 0.00 | 56 | 1021.2 |
| 20260502111804 | 69 | 280 | 0.0 | 0.9 | 0.00 | 0.00 | 0.00 | 56 | 1021.3 |
| 20260502110804 | 69 | 298 | 0.9 | 2.6 | 0.00 | 0.00 | 0.00 | 56 | 1021.3 |
| 20260502110304 | 69 | 302 | 0.9 | 2.6 | 0.00 | 0.00 | 0.00 | 57 | 1021.4 |
| 20260502105805 | 69 | 337 | 0.0 | 2.6 | 0.00 | 0.00 | 0.00 | 57 | 1021.4 |
| 20260502105306 | 69 | 324 | 0.0 | 2.6 | 0.00 | 0.00 | 0.00 | 57 | 1021.4 |
| 20260502104804 | 69 | 330 | 0.0 | 2.6 | 0.00 | 0.00 | 0.00 | 58 | 1021.4 |
| 20260502104304 | 69 | 326 | 0.9 | 1.7 | 0.00 | 0.00 | 0.00 | 58 | 1021.5 |
| 20260502102306 | 68 | 325 | 0.9 | 2.6 | 0.00 | 0.00 | 0.00 | 59 | 1021.8 |
| 20260502101804 | 68 | 323 | 0.9 | 2.6 | 0.00 | 0.00 | 0.00 | 58 | 1021.9 |
| 20260502101305 | 68 | 313 | 0.0 | 1.7 | 0.00 | 0.00 | 0.00 | 58 | 1022.0 |
| 20260502100805 | 69 | 316 | 0.0 | 1.7 | 0.00 | 0.00 | 0.00 | 58 | 1022.0 |
| 20260502100305 | 68 | 315 | 0.0 | 0.0 | 0.00 | 0.00 | 0.00 | 59 | 1022.1 |
| 20260502090805 | 66 | 257 | 0.0 | 0.9 | 0.00 | 0.00 | 0.00 | 65 | 1022.2 |
| 20260502090304 | 65 | 317 | 0.9 | 1.7 | 0.00 | 0.00 | 0.00 | 66 | 1022.2 |
| 20260502071304 | 64 | 326 | 0.0 | 0.9 | 0.00 | 0.00 | 0.00 | 72 | 1022.2 |
| 20260502070804 | 64 | 327 | 0.0 | 0.0 | 0.00 | 0.00 | 0.00 | 72 | 1022.3 |
| 20260502070304 | 64 | 326 | 0.0 | 1.7 | 0.00 | 0.00 | 0.00 | 72 | 1022.3 |
| 20260502065804 | 64 | 277 | 0.0 | 1.7 | 0.00 | 0.00 | 0.00 | 72 | 1022.3 |
| 20260502065306 | 64 | 277 | 0.0 | 1.7 | 0.00 | 0.00 | 0.00 | 73 | 1022.3 |
| 20260502064806 | 64 | 287 | 0.0 | 0.0 | 0.00 | 0.00 | 0.00 | 73 | 1022.4 |
| 20260502064305 | 64 | 287 | 0.0 | 0.0 | 0.00 | 0.00 | 0.00 | 73 | 1022.3 |
| 20260502063804 | 64 | 287 | 0.0 | 0.9 | 0.00 | 0.00 | 0.00 | 74 | 1022.3 |
| 20260502063305 | 64 | 290 | 0.0 | 0.9 | 0.00 | 0.00 | 0.00 | 74 | 1022.2 |
| 20260502062805 | 64 | 300 | 0.0 | 0.0 | 0.00 | 0.00 | 0.00 | 74 | 1022.2 |
| 20260502062306 | 63 | 300 | 0.0 | 2.6 | 0.00 | 0.00 | 0.00 | 75 | 1022.1 |
| 20260502061305 | 63 | 286 | 0.0 | 2.6 | 0.00 | 0.00 | 0.00 | 75 | 1022.0 |
| 20260502060805 | 63 | 278 | 0.9 | 1.7 | 0.00 | 0.00 | 0.00 | 75 | 1022.0 |
| 20260502060306 | 63 | 286 | 0.0 | 0.9 | 0.00 | 0.00 | 0.00 | 76 | 1022.1 |
| 20260502055804 | 63 | 331 | 0.9 | 1.7 | 0.00 | 0.00 | 0.00 | 76 | 1022.1 |
| 20260502054304 | 63 | 279 | 0.0 | 1.7 | 0.00 | 0.00 | 0.00 | 76 | 1022.0 |
| 20260502053805 | 63 | 279 | 0.0 | 0.9 | 0.00 | 0.00 | 0.00 | 76 | 1021.9 |
| 20260502052805 | 63 | 279 | 0.0 | 0.9 | 0.00 | 0.00 | 0.00 | 77 | 1021.9 |
| 20260502052306 | 63 | 279 | 0.9 | 2.6 | 0.00 | 0.00 | 0.00 | 77 | 1021.9 |
| 20260502051805 | 63 | 282 | 0.9 | 1.7 | 0.00 | 0.00 | 0.00 | 76 | 1021.9 |
| 20260502051305 | 63 | 281 | 0.0 | 0.9 | 0.00 | 0.00 | 0.00 | 77 | 1021.9 |
| 20260502050805 | 63 | 282 | 0.0 | 1.7 | 0.00 | 0.00 | 0.00 | 77 | 1021.9 |
| 20260502045804 | 63 | 319 | 0.0 | 0.0 | 0.00 | 0.00 | 0.00 | 76 | 1021.8 |
| 20260502045306 | 63 | 321 | 0.0 | 1.7 | 0.00 | 0.00 | 0.00 | 76 | 1021.8 |
| 20260502044805 | 63 | 322 | 0.0 | 0.9 | 0.00 | 0.00 | 0.00 | 76 | 1021.8 |
| 20260502044305 | 63 | 324 | 0.0 | 0.0 | 0.00 | 0.00 | 0.00 | 77 | 1021.8 |
| 20260502043804 | 63 | 324 | 0.0 | 0.0 | 0.00 | 0.00 | 0.00 | 77 | 1021.8 |
| 20260502043305 | 63 | 324 | 0.0 | 0.0 | 0.00 | 0.00 | 0.00 | 77 | 1021.8 |
| 20260502042306 | 63 | 324 | 0.9 | 1.7 | 0.00 | 0.00 | 0.00 | 77 | 1021.9 |
| 20260502041805 | 63 | 324 | 0.0 | 1.7 | 0.00 | 0.00 | 0.00 | 77 | 1021.8 |
| 20260502041305 | 63 | 326 | 0.0 | 1.7 | 0.00 | 0.00 | 0.00 | 77 | 1021.8 |
| 20260502040805 | 63 | 326 | 0.0 | 1.7 | 0.00 | 0.00 | 0.00 | 77 | 1021.8 |
| 20260502040305 | 63 | 325 | 0.9 | 2.6 | 0.00 | 0.00 | 0.00 | 77 | 1021.7 |
| 20260502035805 | 63 | 325 | 0.0 | 2.6 | 0.00 | 0.00 | 0.00 | 77 | 1021.7 |
| 20260502035306 | 63 | 323 | 0.0 | 0.9 | 0.00 | 0.00 | 0.00 | 77 | 1021.7 |
| 20260502034805 | 63 | 323 | 0.9 | 2.6 | 0.00 | 0.00 | 0.00 | 78 | 1021.7 |
| 20260502034305 | 63 | 323 | 0.0 | 0.9 | 0.00 | 0.00 | 0.00 | 78 | 1021.7 |
| 20260502033305 | 63 | 326 | 0.9 | 1.7 | 0.00 | 0.00 | 0.00 | 78 | 1021.8 |
| 20260502032306 | 63 | 326 | 0.0 | 0.0 | 0.00 | 0.00 | 0.00 | 78 | 1021.7 |
| 20260502031805 | 63 | 328 | 0.0 | 0.0 | 0.00 | 0.00 | 0.00 | 78 | 1021.7 |
| 20260502031306 | 63 | 328 | 0.0 | 0.9 | 0.00 | 0.00 | 0.00 | 78 | 1021.7 |
| 20260502030804 | 63 | 327 | 0.0 | 1.7 | 0.00 | 0.00 | 0.00 | 78 | 1021.7 |
| 20260502030305 | 63 | 310 | 0.0 | 0.0 | 0.00 | 0.00 | 0.00 | 78 | 1021.8 |
| 20260502025805 | 63 | 310 | 0.0 | 0.9 | 0.00 | 0.00 | 0.00 | 78 | 1021.8 |
| 20260502025306 | 63 | 317 | 0.0 | 1.7 | 0.00 | 0.00 | 0.00 | 77 | 1021.8 |
| 20260502024305 | 64 | 282 | 0.0 | 1.7 | 0.00 | 0.00 | 0.00 | 78 | 1021.8 |
| 20260502023805 | 64 | 280 | 0.0 | 0.9 | 0.00 | 0.00 | 0.00 | 78 | 1021.8 |
| 20260502023305 | 64 | 280 | 0.9 | 2.6 | 0.00 | 0.00 | 0.00 | 78 | 1021.9 |
| 20260502021805 | 63 | 282 | 0.9 | 2.6 | 0.00 | 0.00 | 0.00 | 78 | 1021.9 |
| 20260502021305 | 64 | 292 | 0.9 | 2.6 | 0.00 | 0.00 | 0.00 | 77 | 1021.9 |
| 20260502020804 | 63 | 280 | 0.9 | 1.7 | 0.00 | 0.00 | 0.00 | 77 | 1022.0 |
| 20260502020305 | 64 | 281 | 0.9 | 2.6 | 0.00 | 0.00 | 0.00 | 77 | 1022.0 |
| 20260502015805 | 64 | 290 | 0.9 | 2.6 | 0.00 | 0.00 | 0.00 | 77 | 1022.0 |
| 20260502015305 | 64 | 282 | 0.9 | 2.6 | 0.00 | 0.00 | 0.00 | 76 | 1022.0 |
| 20260502014805 | 64 | 307 | 0.0 | 0.9 | 0.00 | 0.00 | 0.00 | 75 | 1022.1 |
| 20260502014305 | 64 | 309 | 0.0 | 0.9 | 0.00 | 0.00 | 0.00 | 74 | 1022.1 |
| 20260502013806 | 64 | 336 | 0.0 | 0.0 | 0.00 | 0.00 | 0.00 | 74 | 1022.1 |
| 20260502013305 | 64 | 336 | 0.0 | 0.0 | 0.00 | 0.00 | 0.00 | 74 | 1022.1 |
| 20260502012805 | 64 | 336 | 0.0 | 1.7 | 0.00 | 0.00 | 0.00 | 74 | 1022.1 |
| 20260502012306 | 63 | 283 | 0.9 | 2.6 | 0.00 | 0.00 | 0.00 | 75 | 1022.1 |
| 20260502011806 | 63 | 281 | 0.0 | 0.0 | 0.00 | 0.00 | 0.00 | 75 | 1022.0 |
| 20260502010305 | 63 | 281 | 0.0 | 0.9 | 0.00 | 0.00 | 0.00 | 75 | 1022.2 |
| 20260502005805 | 63 | 281 | 0.0 | 0.9 | 0.00 | 0.00 | 0.00 | 74 | 1022.2 |
| 20260502005306 | 63 | 281 | 0.0 | 0.9 | 0.00 | 0.00 | 0.00 | 73 | 1022.3 |
| 20260502004804 | 63 | 281 | 0.0 | 0.0 | 0.00 | 0.00 | 0.00 | 73 | 1022.4 |
| 20260502004305 | 63 | 281 | 0.0 | 0.9 | 0.00 | 0.00 | 0.00 | 72 | 1022.5 |
| 20260502003805 | 63 | 281 | 0.0 | 0.9 | 0.00 | 0.00 | 0.00 | 72 | 1022.5 |
| 20260502003304 | 63 | 281 | 0.0 | 1.7 | 0.00 | 0.00 | 0.00 | 72 | 1022.6 |
| 20260502002805 | 63 | 281 | 0.0 | 0.9 | 0.00 | 0.00 | 0.00 | 72 | 1022.7 |
| 20260502002306 | 63 | 281 | 0.0 | 0.9 | 0.00 | 0.00 | 0.00 | 73 | 1022.7 |
| 20260502001804 | 63 | 281 | 0.9 | 1.7 | 0.00 | 0.00 | 0.00 | 74 | 1022.8 |
| 20260502000805 | 63 | 281 | 0.0 | 0.0 | 0.00 | 0.00 | 0.00 | 79 | 1022.9 |
| 20260501235804 | 63 | 281 | 0.0 | 0.0 | 0.00 | 0.00 | 0.00 | 77 | 1023.0 |
| 20260501235305 | 63 | 281 | 0.0 | 0.0 | 0.00 | 0.00 | 0.00 | 76 | 1023.1 |
| 20260501234804 | 63 | 281 | 0.0 | 0.0 | 0.00 | 0.00 | 0.00 | 78 | 1023.1 |
| 20260501234305 | 63 | 281 | 0.0 | 0.0 | 0.00 | 0.00 | 0.00 | 78 | 1023.1 |
| 20260501233304 | 63 | 281 | 0.0 | 0.9 | 0.00 | 0.00 | 0.00 | 78 | 1023.2 |
| 20260501232806 | 63 | 281 | 0.0 | 1.7 | 0.00 | 0.00 | 0.00 | 78 | 1023.2 |
| 20260501232306 | 63 | 308 | 0.0 | 0.0 | 0.00 | 0.00 | 0.00 | 78 | 1023.2 |
| 20260501231805 | 63 | 324 | 0.0 | 0.0 | 0.00 | 0.00 | 0.00 | 79 | 1023.3 |
| 20260501231305 | 63 | 324 | 0.0 | 0.0 | 0.00 | 0.00 | 0.00 | 79 | 1023.3 |
| 20260501230804 | 63 | 324 | 0.0 | 0.0 | 0.00 | 0.00 | 0.00 | 79 | 1023.4 |
| 20260501230305 | 63 | 324 | 0.0 | 0.0 | 0.00 | 0.00 | 0.00 | 79 | 1023.3 |
| 20260501225306 | 63 | 324 | 0.0 | 0.0 | 0.00 | 0.00 | 0.00 | 80 | 1023.2 |
| 20260501224804 | 63 | 324 | 0.0 | 0.0 | 0.00 | 0.00 | 0.00 | 80 | 1023.2 |
| 20260501223805 | 63 | 324 | 0.0 | 0.0 | 0.00 | 0.00 | 0.00 | 80 | 1023.1 |
| 20260501223304 | 63 | 323 | 0.0 | 0.0 | 0.00 | 0.00 | 0.00 | 80 | 1023.1 |
| 20260501222804 | 63 | 323 | 0.0 | 0.0 | 0.00 | 0.00 | 0.00 | 80 | 1023.1 |
| 20260501222305 | 62 | 323 | 0.0 | 0.0 | 0.00 | 0.00 | 0.00 | 80 | 1023.1 |
| 20260501221805 | 62 | 323 | 0.0 | 0.0 | 0.00 | 0.00 | 0.00 | 80 | 1023.1 |